Location: Newark
(50.1751°N, 5.6239°W)
Time: 06:14:44
(UTC+00:00)

Envisat - Visible Passes

Search period start: 18 September 2021 00:00
Search period end: 28 September 2021 00:00
Orbit: 764 x 766 km, 98.2° (Epoch: 17 September)

Date Brightness Start Highest point End Pass type
(mag) Time Alt. Az. Time Alt. Az. Time Alt. Az.
18 Sep 4.8 04:58:36 10° NNE 05:03:15 35° E 05:07:52 10° SSE visible
19 Sep 5.8 04:22:38 10° NE 04:26:01 18° E 04:29:24 10° SE visible
20 Sep 3.8 05:23:42 10° NNE 05:28:44 56° E 05:33:43 10° S visible
21 Sep 5.2 04:47:16 10° NE 04:51:39 28° E 04:56:00 10° SSE visible
22 Sep 6.0 04:11:39 10° NE 04:14:21 14° E 04:17:03 10° ESE visible
23 Sep 4.3 05:12:16 10° NNE 05:17:10 45° E 05:22:02 10° S visible
24 Sep 5.5 04:36:00 10° NE 04:40:01 23° E 04:44:01 10° SE visible
25 Sep 6.2 04:01:06 10° ENE 04:02:40 11° E 04:04:14 10° ESE visible
25 Sep 3.3 05:37:29 10° NNE 05:42:36 74° ESE 05:47:40 10° S visible
26 Sep 4.7 05:00:52 10° NNE 05:05:35 37° E 05:10:17 10° SSE visible
27 Sep 5.8 04:24:49 10° NE 04:28:23 19° E 04:31:56 10° SE visible
